Weather in Olginskaya

Russia / Krasnodar Krai     45°56′34″N   38°32′48″E
temp.,
°C
wind,
m/s
gust,
m/s
humid.,
%
clouds,
%
prec.,
mm/h
press.,
hPa
HPBL,
m
11 april, sun
sun1100:00+8ene3471100 0.0 1022122
03:00+8nnw3574100 0.0 1021204
06:00+8nne41079100 0.0 1021448
09:00+8nne6108097 0.1 1021640
12:00+11ne7971100 0.0 1020884
15:00+11ne6777100 0.0 1019762
18:00+10ne5884100 0.0 1019445
21:00+9ne4887100 0.1 1020300
12 april, mon
mon1200:00+9nne3590100 0.1 1019172
03:00+9sse0091100 0.3 101912
06:00+9wsw2291100 0.0 102028
09:00+10sw4586100 0.0 1021462
12:00+10wsw4588100 0.3 1021389
15:00+10nw2291100 2.6 1022239
18:00+9n2292100 0.0 102298
21:00+9e2293100 0.0 102348
13 april, tue
tue1300:00+9s2292100 0.0 102331
03:00+8sw238998 0.0 102361
06:00+8ssw2390100 0.0 102366
09:00+8s2391100 0.2 1023120
12:00+10ese1182100 0.1 1023217
15:00+12e2273100 0.1 1022589
18:00+12e2279100 0.0 1022172
21:00+10ese1183100 0.0 102211
14 april, wed
wed1400:00+9nne2287100 0.0 102011
03:00+8ne2291100 0.0 102030
06:00+8n1192100 0.0 101913
09:00+9n1292100 0.9 1019105
12:00+10wnw1187100 0.4 1018166
15:00+12nw227656 0.4 1018425
18:00+12n227741 0.0 101780
21:00+9wnw22845 0.0 101813
15 april, thu
thu1500:00+8nnw118959 0.0 101610
03:00+8e22908 0.0 101623
06:00+7e33945 0.0 101637
09:00+12ese348028 0.0 1015353
12:00+16se346076 0.0 1014886
15:00+15ssw8972100 0.3 1015704
18:00+12e228914 2.8 101487
21:00+11ssw338893 2.8 101558